Weather History for Newport, VT

Change the Weather History Date:

Friday, February 22, 2013

  Actual Average Record
Temperature  
Mean Temperature 21 °F -  
Max Temperature 30 °F 35 °F 61 °F (1981)
Min Temperature 12 °F 12 °F -18 °F (1959)
Degree Days  
Heating Degree Days 44    
Moisture  
Dew Point 16 °F    
Average Humidity 77    
Maximum Humidity 89    
Minimum Humidity 58    
Precipitation  
Precipitation 0.00 in - - ()
Sea Level Pressure  
Sea Level Pressure 30.31 in    
Wind  
Wind Speed 5 mph (NW)    
Max Wind Speed 12 mph    
Max Gust Speed 16 mph    
Visibility 10 miles    
Events Snow    
Averages and records for this station are not official NWS values.
T = Trace of Precipitation, MM = Missing Value Source: NWS Daily Summary

Daily Weather History Graph

Daily Weather History Graph

Search for Another Location

Airport:

Trip Planner

Search our weather history database for the weather conditions in past years. The results will help you decide how hot, cold, wet, or windy it might be!

Date:

Astronomy

Feb. 22, 2013 Rise Set
Actual Time 6:38 AM EST 5:27 PM EST
Civil Twilight 6:08 AM EST 5:56 PM EST
Nautical Twilight 5:34 AM EST 6:31 PM EST
Astronomical Twilight 5:00 AM EST 7:04 PM EST
Moon 2:30 PM EST (2/22) 4:27 AM EST (2/22)
Length of Visible Light 11h 48m
Length of Day
10h 49m
Waxing Gibbous, 90% of the Moon is Illuminated
Feb 22
Waxing Gibbous
Feb 25
Full
Mar 4
Last Quarter
Mar 11
New
Mar 19
First Quarter

Hourly Weather History & Observations

Time (EST) Temp. Windchill Dew Point Humidity Pressure Visibility Wind Dir Wind Speed Gust Speed Precip Events Conditions
12:15 AM 20.5 °F 9.2 °F 14.9 °F 79% 30.30 in 10.0 mi NW 10.4 mph 16.1 mph N/A   Overcast
12:35 AM 21.0 °F 9.3 °F 15.4 °F 79% 30.31 in 10.0 mi WNW 11.5 mph - N/A   Overcast
12:55 AM 21.0 °F 9.9 °F 15.4 °F 79% 30.32 in 10.0 mi WNW 10.4 mph - N/A   Overcast
1:15 AM 20.3 °F 9.0 °F 14.9 °F 80% 30.32 in 10.0 mi WNW 10.4 mph - N/A   Overcast
1:35 AM 20.8 °F 10.4 °F 15.3 °F 79% 30.32 in 10.0 mi NW 9.2 mph - N/A   Overcast
1:55 AM 21.0 °F 11.4 °F 15.4 °F 79% 30.33 in 10.0 mi NW 8.1 mph - N/A   Overcast
2:15 AM 21.2 °F 10.9 °F 15.4 °F 78% 30.32 in 10.0 mi NNW 9.2 mph - N/A   Overcast
2:35 AM 20.8 °F 11.2 °F 15.3 °F 79% 30.32 in 10.0 mi NNW 8.1 mph - N/A   Overcast
2:55 AM 20.8 °F 12.1 °F 15.3 °F 79% 30.32 in 10.0 mi NNW 6.9 mph - N/A   Overcast
3:15 AM 20.3 °F 15.4 °F 15.3 °F 81% 30.32 in 10.0 mi NW 3.5 mph - N/A   Overcast
3:35 AM 20.1 °F - 15.3 °F 81% 30.32 in 10.0 mi Calm Calm - N/A   Overcast
3:55 AM 18.7 °F 13.5 °F 14.5 °F 84% 30.31 in 10.0 mi WNW 3.5 mph - N/A   Mostly Cloudy
4:15 AM 17.6 °F 12.3 °F 14.0 °F 86% 30.32 in 10.0 mi WNW 3.5 mph - N/A   Scattered Clouds
4:35 AM 17.1 °F - 13.6 °F 86% 30.32 in 10.0 mi Calm Calm - N/A   Overcast
4:55 AM 15.4 °F - 11.5 °F 84% 30.32 in 10.0 mi Calm Calm - N/A   Overcast
5:15 AM 14.7 °F - 12.0 °F 89% 30.32 in 10.0 mi Calm Calm - N/A   Scattered Clouds
5:35 AM 16.7 °F - 14.0 °F 89% 30.33 in 10.0 mi Calm Calm - N/A   Mostly Cloudy
5:55 AM 12.9 °F - 9.3 °F 86% 30.32 in 10.0 mi Calm Calm - N/A   Overcast
6:15 AM 15.8 °F - 12.9 °F 88% 30.33 in 10.0 mi Calm Calm - N/A   Overcast
6:35 AM 16.2 °F - 13.1 °F 88% 30.34 in 10.0 mi Calm Calm - N/A   Overcast
6:55 AM 16.3 °F 10.8 °F 13.3 °F 88% 30.36 in 7.0 mi WSW 3.5 mph - N/A   Overcast
7:15 AM 16.7 °F - 13.6 °F 88% 30.37 in 7.0 mi Calm Calm - N/A   Overcast
7:35 AM 17.6 °F - 14.5 °F 88% 30.38 in 10.0 mi Calm Calm - N/A   Overcast
7:55 AM 17.1 °F - 13.8 °F 87% 30.40 in 10.0 mi Calm Calm - N/A   Overcast
8:15 AM 17.6 °F - 14.7 °F 88% 30.41 in 7.0 mi Calm Calm - N/A   Overcast
8:35 AM 18.5 °F - 15.4 °F 88% 30.40 in 5.0 mi Calm Calm - N/A   Overcast
8:55 AM 19.2 °F - 15.4 °F 85% 30.40 in 5.0 mi Calm Calm - N/A   Overcast
9:15 AM 19.8 °F 14.7 °F 15.4 °F 83% 30.39 in 5.0 mi NNE 3.5 mph - N/A   Haze
9:35 AM 20.5 °F 15.6 °F 16.0 °F 83% 30.38 in 5.0 mi North 3.5 mph - N/A   Overcast
9:55 AM 21.6 °F - 16.5 °F 81% 30.38 in 4.0 mi Calm Calm - N/A Snow Light Snow
10:15 AM 23.0 °F 15.8 °F 17.4 °F 79% 30.37 in 7.0 mi NW 5.8 mph - N/A Snow Light Snow
10:35 AM 24.6 °F - 18.1 °F 76% 30.38 in 10.0 mi Calm Calm - N/A   Overcast
10:55 AM 24.8 °F 20.5 °F 18.3 °F 76% 30.37 in 10.0 mi North 3.5 mph - N/A   Overcast
11:15 AM 25.5 °F 19.9 °F 18.3 °F 74% 30.37 in 10.0 mi North 4.6 mph - N/A   Overcast
11:35 AM 25.5 °F 18.7 °F 18.5 °F 75% 30.37 in 10.0 mi North 5.8 mph - N/A   Overcast
11:55 AM 26.2 °F 18.6 °F 18.9 °F 74% 30.36 in 10.0 mi North 6.9 mph - N/A   Overcast
12:15 PM 26.6 °F 19.1 °F 18.9 °F 73% 30.35 in 10.0 mi North 6.9 mph - N/A   Overcast
12:35 PM 27.0 °F 20.5 °F 18.0 °F 69% 30.34 in 10.0 mi North 5.8 mph - N/A   Overcast
12:55 PM 28.2 °F 22.0 °F 17.8 °F 65% 30.34 in 10.0 mi North 5.8 mph - N/A   Mostly Cloudy
1:15 PM 28.0 °F 22.8 °F 16.7 °F 62% 30.33 in 10.0 mi North 4.6 mph - N/A   Mostly Cloudy
1:35 PM 28.2 °F 24.4 °F 16.3 °F 61% 30.32 in 10.0 mi NNW 3.5 mph - N/A   Mostly Cloudy
1:55 PM 30.0 °F - 16.7 °F 58% 30.32 in 10.0 mi Calm Calm - N/A   Mostly Cloudy
2:15 PM 28.6 °F 23.5 °F 16.5 °F 61% 30.31 in 10.0 mi North 4.6 mph - N/A   Scattered Clouds
2:35 PM 29.1 °F 25.4 °F 16.2 °F 58% 30.31 in 10.0 mi NNW 3.5 mph - N/A   Clear
2:55 PM 27.5 °F 21.1 °F 16.5 °F 63% 30.29 in 10.0 mi North 5.8 mph - N/A   Clear
3:15 PM 28.6 °F - 16.7 °F 61% 30.30 in 10.0 mi Calm Calm - N/A   Clear
3:35 PM 29.1 °F 25.4 °F 16.7 °F 60% 30.30 in 10.0 mi NW 3.5 mph - N/A   Clear
3:55 PM 27.9 °F 21.5 °F 16.9 °F 63% 30.30 in 10.0 mi North 5.8 mph - N/A   Clear
4:15 PM 27.5 °F 20.2 °F 17.1 °F 65% 30.29 in 10.0 mi North 6.9 mph - N/A   Clear
4:35 PM 26.8 °F 21.4 °F 16.9 °F 66% 30.28 in 10.0 mi North 4.6 mph - N/A   Clear
4:55 PM 26.2 °F 20.7 °F 17.2 °F 69% 30.27 in 10.0 mi North 4.6 mph - N/A   Clear
5:15 PM 26.4 °F 20.9 °F 17.2 °F 68% 30.27 in 10.0 mi North 4.6 mph - N/A   Clear
5:35 PM 25.9 °F 21.7 °F 17.1 °F 69% 30.27 in 10.0 mi North 3.5 mph - N/A   Clear
5:55 PM 26.2 °F - 17.1 °F 68% 30.27 in 10.0 mi Calm Calm - N/A   Clear
6:15 PM 25.9 °F - 17.2 °F 70% 30.27 in 10.0 mi Calm Calm - N/A   Clear
6:35 PM 25.7 °F - 17.6 °F 71% 30.26 in 10.0 mi Calm Calm - N/A   Clear
6:55 PM 19.9 °F - 14.4 °F 79% 30.26 in 10.0 mi Calm Calm - N/A   Clear
7:15 PM 20.1 °F - 15.3 °F 81% 30.26 in 10.0 mi Calm Calm - N/A   Clear
7:35 PM 23.5 °F 19.1 °F 17.6 °F 78% 30.27 in 10.0 mi SW 3.5 mph - N/A   Clear
7:55 PM 24.8 °F - 18.1 °F 76% 30.26 in 10.0 mi Calm Calm - N/A   Clear
8:15 PM 22.1 °F - 16.9 °F 80% 30.26 in 10.0 mi Calm Calm - N/A   Clear
8:35 PM 21.2 °F - 16.2 °F 81% 30.25 in 10.0 mi Calm Calm - N/A   Clear
8:55 PM 20.8 °F - 16.2 °F 82% 30.25 in 10.0 mi Calm Calm - N/A   Clear
9:15 PM 22.6 °F 18.0 °F 17.4 °F 80% 30.25 in 10.0 mi SSW 3.5 mph - N/A   Clear
9:35 PM 22.6 °F - 17.8 °F 82% 30.24 in 10.0 mi Calm Calm - N/A   Scattered Clouds
9:55 PM 21.6 °F 16.8 °F 16.9 °F 82% 30.24 in 10.0 mi SW 3.5 mph - N/A   Overcast
10:15 PM 22.6 °F 16.5 °F 17.6 °F 81% 30.24 in 10.0 mi SW 4.6 mph - N/A   Scattered Clouds
10:35 PM 22.3 °F 17.6 °F 16.7 °F 79% 30.24 in 10.0 mi SSW 3.5 mph - N/A   Clear
10:55 PM 22.8 °F 18.2 °F 17.6 °F 80% 30.23 in 10.0 mi SW 3.5 mph - N/A   Clear
11:15 PM 24.4 °F 17.5 °F 18.0 °F 76% 30.23 in 10.0 mi SSE 5.8 mph - N/A   Scattered Clouds
11:35 PM 27.1 °F 21.8 °F 18.0 °F 68% 30.23 in 10.0 mi SW 4.6 mph - N/A   Mostly Cloudy
11:55 PM 24.1 °F 19.7 °F 18.0 °F 77% 30.23 in 10.0 mi WSW 3.5 mph - N/A   Overcast